Regional Weather Roundup
Issued by NWS Wakefield, VA

Home | Current Version | Previous Version | Graphics & Text | Print | Product List | Glossary On
Versions: 1 2 3 4 5 6 7 8 9 10 11 12 13 14 15 16 17 18 19 20 21 22 23 24 25 26 27 28 29 30 31 32 33 34 35 36 37 38 39 40 41 42 43 44 45 46 47 48 49 50
000
ASUS41 KAKQ 291710
RWRAKQ

REGIONAL WEATHER ROUNDUP
NATIONAL WEATHER SERVICE WAKEFIELD VA
100 PM EDT MON SEP 29 2014

Note: "fair" indicates few or no clouds below 12,000 feet with no
significant weather and/or obstructions to visibility. * = Denotes
station may not report precipitation (e.g., rain,snow,etc.),
thunder or fog.

VAZ042-051-052>054-056-291800-
NORTHERN VIRGINIA

CITY           SKY/WX    TMP DP  RH WIND       PRES   REMARKS
WASH NATIONAL  CLOUDY    72  61  68 S6        30.00F
DULLES         CLOUDY    68  63  84 CALM      30.00F
FORT BELVOIR   CLOUDY    68  63  82 VRB1      30.00F
QUANTICO       LGT RAIN  70  62  76 W5        30.01F
FREDERICKSBRG* LGT RAIN  70  64  82 SW5       30.00F
STAFFORD*      LGT RAIN  67  67 100 CALM      30.05S
WARRENTON      CLOUDY    68  66  93 SW5       30.00F
CULPEPER*      LGT RAIN  68  63  83 SW3       30.02F
MANASSAS*      SUNNY     66  64  94 CALM      30.04R
LEESBURG*      CLOUDY    70  64  83 CALM      30.01S
WINCHESTER     CLOUDY    72  57  60 W3        30.00F
FRONT ROYAL*   CLOUDY    70  61  73 S3        30.00F
LURAY*         CLOUDY    75  61  60 CALM      30.01F
$$

VAZ048-049-060>072-079>083-291800-
CENTRAL AND SOUTH CENTRAL VIRGINIA...AND NORTH CENTRAL NORTH CAROLINA

CITY           SKY/WX    TMP DP  RH WIND       PRES   REMARKS
RICHMOND       LGT RAIN  68  63  84 W7        30.01F
CHESTERFIELD*  CLOUDY   N/A N/A N/A W5        30.03S
PETERSBURG*    LGT RAIN  67  64  90 SW3       30.02F
HANOVER        LGT RAIN  67  64  90 W5        30.03F
TAPPAHANNOCK*  LGT RAIN  69  64  84 CALM      30.02F
CHARLOTTSVILLE CLOUDY    67  64  90 CALM      30.01F
ORANGE*        LGT RAIN  64  63  94 CALM      30.03S
LOUISA*        DRIZZLE   66  64  94 SW3       30.01S
FARMVILLE*     DRIZZLE   68  66  94 W3        30.00F
CREWE*         NOT AVBL
FORT PICKETT*  CLOUDY    66  64  90 W5        30.02F
LUNENBURG*     CLOUDY    68  62  80 CALM      30.02F
SOUTH HILL*    LGT RAIN  66  66 100 CALM      30.06F
LAWRENCEVILLE* CLOUDY    65  62  92 CALM      30.01F
ROANOKE RAPIDS DRIZZLE   68  61  77 N3        30.02S
RALEIGH        CLOUDY    71  60  68 N3        30.04F
$$

VAZ088>098-291800-
SOUTHEAST VIRGINIA

CITY           SKY/WX    TMP DP  RH WIND       PRES   REMARKS
NORFOLK        CLOUDY    73  60  63 NW5       29.99F
VIRGINIA BEACH CLOUDY    75  62  64 N8        29.99F
NORFOLK NAVAL  CLOUDY    73  63  70 NW5       30.00F
WEST POINT*    CLOUDY    72  64  75 CALM      30.03S
NEWPORT NEWS   CLOUDY    75  64  68 NW6       30.00F
LANGLEY AFB    CLOUDY    72  65  79 W2        30.00F
FORT EUSTIS    CLOUDY    70  70 100 NW7       29.99F
WILLIAMSBURG*  CLOUDY    72  66  83 CALM      30.01F
HR EXEC AP*    CLOUDY    72  64  78 NW3       30.02F
FRANKLIN*      CLOUDY    70  63  78 CALM      30.01F
WAKEFIELD      CLOUDY    70  61  73 W7        30.01F
$$

VAZ020-022-025-037-045-291800-
WEST CENTRAL AND SOUTHWEST VIRGINIA

CITY           SKY/WX    TMP DP  RH WIND       PRES   REMARKS
STAUNTON*      CLOUDY    69  58  70 S3        30.05F
HOT SPRINGS VA CLOUDY    60  45  57 NW3       30.14F
LYNCHBURG      LGT RAIN  68  63  84 SW5       30.04F
DANVILLE       LGT RAIN  69  63  81 SW5       30.04S
SOUTH BOSTON*  NOT AVBL
MARTINSVILLE   CLOUDY    69  67  93 CALM      30.07F
ROANOKE        CLOUDY    68  62  81 W6        30.06F
BLACKSBURG     CLOUDY    66  64  94 CALM      30.09F
DUBLIN*        CLOUDY    67  64  89 S3        30.09F
MARION*        CLOUDY    66  61  82 CALM      30.11F
HILLSVILLE*    CLOUDY    63  60  88 CALM      30.10F
RICHLANDS*     CLOUDY    68  62  79 CALM      30.10F
WISE*          CLOUDY    68  63  83 CALM      30.11F
ABINGDON*      CLOUDY    68  62  81 CALM      30.09F
$$

MDZ021>025-VAZ099-100-291800-
SOUTHERN MARYLAND AND THE DELMARVA PENINSULA

CITY           SKY/WX    TMP DP  RH WIND       PRES   REMARKS
PATUXENT RIVER LGT RAIN  70  62  76 W7        30.01S
BAY BRIDGE APT   N/A     72  59  64 CALM      29.99F
LEONARDTOWN    CLOUDY    68  61  77 SW5       30.03S
DOVER          CLOUDY    73  63  71 SW5       29.97F
GEORGETOWN     CLOUDY    74  60  61 VRB6      30.00F
EASTON         CLOUDY    73  64  73 CALM      30.03F
CAMBRIDGE      CLOUDY    72  63  73 CALM      30.00S
SALISBURY      CLOUDY    77  62  59 VRB3      29.99F
OCEAN CITY     CLOUDY    74  64  71 S7        29.99F
WALLOPS ISLAND CLOUDY    80  60  50 NW6       29.99F
ACCOMACK*      PTSUNNY   73  59  60 W9        30.00S
$$

NCZ012>017-030>032-291800-
EASTERN NORTH CAROLINA

CITY           SKY/WX    TMP DP  RH WIND       PRES   REMARKS
ELIZABETH CITY CLOUDY    74  63  68 N5        30.00F
AHOSKIE*       CLOUDY    68  61  77 CALM      30.01F
EDENTON*       CLOUDY    74  62  67 N5        30.00F
CURRITUCK*     CLOUDY    74  64  70 CALM      30.01F
KILL DEVIL HLS CLOUDY    73  62  70 N6        29.99S
MANTEO         CLOUDY    73  65  76 N6        29.99F
CAPE HATTERAS  CLOUDY    73  68  84 NE9       29.99F
TARBORO*       CLOUDY    70  63  78 CALM      30.02F
GOLDSBORO      CLOUDY    71  66  85 CALM      30.00F
WASHINGTON     CLOUDY    72  64  77 CALM      30.01F
GREENVILLE     CLOUDY    72  64  78 N5        30.03S
NEW BERN       CLOUDY    76  65  68 N5        30.01F
WILMINGTON     CLOUDY    76  65  68 N8        29.98F
$$

VAZ048-291800-
ELSEWHERE

CITY           SKY/WX    TMP DP  RH WIND       PRES   REMARKS
HARRISBURG PA  CLOUDY    74  61  63 CALM      29.96F
BALTIMORE      CLOUDY    70  63  78 SW3       29.98F
ANNAPOLIS      CLOUDY    72  61  68 CALM      29.99F
ANDREWS AFB    CLOUDY    71  60  70 S8        30.00
WILMINGTON DE  PTSUNNY   73  64  73 S6        29.99F
PHILADELPHIA   PTSUNNY   75  60  59 W7        29.98F
WILDWOOD NJ*   CLOUDY    73  57  56 W6        30.01S
ATLANTIC CITY  CLOUDY    76  60  57 W10       29.98S
HENDERSON NC   CLOUDY    66  62  84 CALM      30.03S
GREENSBORO     LGT RAIN  64  61  90 NW6       30.05S FOG
ROCKY MOUNT    CLOUDY    69  60  73 CALM      30.02F
FAYETTEVILLE   CLOUDY    69  65  86 NE6       30.01F
CHARLOTTE      LGT RAIN  66  61  84 CALM      30.06F
$$

VAZ100-291800-
MARINE

STATION/POSITION TIME  TEMP    WIND        PRES    WAVE   SWELL
                       AIR SEA DIR/SP/G            HT/PER HT/PER
                 (UTC) (F)     (DEG/KT/KT) (MB)    (FT/S) (FT/S)
44066 TX TWR #4  1700   69 71  230/  6/  6 1014.9F   2/ 7   2/ 7
CAPE MAY NJ      1700   70 74  240/  4/  4 1015.3F
LEWES DE         1700   71 70   70/  6/  6 1015.3F
15NM E FENWICK I 1700   71 71              1015.5S   2/ 9
OCEAN-CITY-INLET 1700   72 71  150/  4/  6 1015.3F
WACHAPREAGUE VA  1700   78 73  290/  1/  5 1015.6F
THOMAS POINT MD  1700   69 72  160/  6/  7 1016.6F
GOOSES REEF MD   1700   70     230/  8/ 10 1016.7S
COVE POINT MD    1700   70     250/  4/  7 1016.0F
SOLOMONS ISLAND  1700      72                N/A
BISHOPS HEAD MD  1700   71 72  250/  3/  4 1015.8S
PINEY POINT MD   1700          250/  3/  5   N/A
POTOMAC MD       1700   71     290/  8/ 10 1015.7S
CAMBRIDGE MD     1700   71 71  230/  3/  4 1015.7S
LEWISETTA VA     1700   70 71  270/  5/  7 1015.8F
RAPPAHANNOCK LGT 1700          280/  5/  6 1016.5F
STINGRAY PT      1700   71     330/ 10/ 12   N/A
YORK RVR RNG VA  1700   72     330/  6/  7 1015.3F
YORKTOWN VA      1700   70 73  330/  9/ 10 1015.5F
JAMESTOWN VA     1700   68     340/  6/  6   N/A
DOMINION TERM VA 1700   70     320/  3/  4 1015.9F
KIPTOPEKE VA     1700      76  340/  5/  6   N/A
CHES BAY BRIDGE  1700   71 72  280/  5/  5 1015.3F
CHESAPEAKE LGHT  1600   71     320/  7/  7 1016.9F
WILLOUBY STN VA  1700   71     290/  6/  7 1014.7F
S CRANEY ISL VA  1700          330/  4/  5 1015.3F
CAPE HENRY BUOY  1700      73                N/A     2/ 8
1ST LANDING BUOY 1700   71     310/  6/  8 1015.5F
CAPE CHARLES BUO 1700      72                N/A     2/ 8   2/ 8
OFFSHORE WE BUOY 1700      73                N/A     2/ 8   2/ 8
64NM E OF VA BCH 1700   71 71  360/  8/  8 1015.0F   2/ 8   2/ 8
DUCK PIER NC     1700   70 73  350/  8/ 11 1015.0F
44100 DUCK FRF   1700      72                N/A     2/ 8
44056 DUCK FRF   1700                        N/A     2/ 8
OREGON INLET NC  1700   73 73  360/  7/ 11 1015.5S
DIAMOND SHLS NC  1600   74     360/ 12/ 14 1015.2F   3/ 7   3/ 7
CAPE LOOKOUT NC  1600   74      10/  9/ 10 1015.6F
$$



USA.gov is the U.S. government's official web portal to all federal, state and local government web resources and services.